User: anonymous
Location: Unspecified
(0.0000°N, 0.0000°E)
Time: 23:41:56
(UTC+02:00)
Language:

Delta 2 Rocket - Orbit

View from above orbital plane
View from above orbital plane
View from above satellite
View from above satellite

Ground track
Ground track

The orbit data is extracted from the following two-line orbital elements,

1 20453U 90008B   14201.82152179  .00001042  00000-0  71153-4 0   263
2 20453 035.6263 320.3620 0323623 017.0307 344.0980 14.73586388290747
Epoch (UTC): 20 July 2014 19:42:59
Eccentricity: 0.0323623
inclination: 35.6263°
perigee height: 422 km
apogee height: 877 km
right ascension of ascending node: 320.3620°
argument of perigee: 17.0307°
revolutions per day: 14.73586388
mean anomaly at epoch: 344.0980°
orbit number at epoch: 29074

The dashed part of the orbit path shows where the satellite is in the earth's shadow,  

DLR